Location: Altmatt
(47.1333°N, 8.7000°E)
Time: 09:34:21
(UTC+00:00)

Tianhe-1 - Visible Passes

Search period start: 19 June 2021 00:00
Search period end: 29 June 2021 00:00
Orbit: 375 x 386 km, 41.5° (Epoch: 18 June)

Date Brightness Start Highest point End Pass type
(mag) Time Alt. Az. Time Alt. Az. Time Alt. Az.
22 Jun 2.9 02:25:01 12° SSW 02:26:52 18° SSE 02:29:05 10° ESE visible
23 Jun 3.4 01:26:39 12° SE 01:26:39 12° SE 01:27:33 10° SE visible
24 Jun 2.5 02:00:22 19° SSW 02:01:24 22° SSE 02:03:55 10° ESE visible
25 Jun 3.4 01:01:58 13° SE 01:01:58 13° SE 01:02:43 10° ESE visible
25 Jun 2.1 02:34:05 10° WSW 02:36:48 28° S 02:39:34 10° ESE visible
26 Jun 2.2 01:35:44 26° S 01:35:54 26° S 01:38:35 10° ESE visible
27 Jun 3.8 00:37:26 10° ESE 00:37:26 10° ESE 00:37:30 10° ESE visible
27 Jun 2.1 02:09:33 17° SW 02:11:18 28° S 02:14:04 10° ESE visible
28 Jun 2.6 01:11:23 23° SE 01:11:23 23° SE 01:13:07 10° ESE visible
28 Jun 2.4 02:44:10 10° WSW 02:46:39 22° SSW 02:49:08 10° SE visible
